This is the latest recevied weather packets stored in our database for station/object KB3GVC-13. If no packets are shown the sender has not sent any weather packets the latest 10 day(s).
| Time | Temp. | Humidity | Pressure | Rain* | Wind** | Luminosity | Snow |
|---|---|---|---|---|---|---|---|
| 1777921226 | 22.22° C | 36% | 1012.9 hPa | 0 mm | - | - | - |
| 1777920924 | 22.78° C | 36% | 1012.7 hPa | 0 mm | - | - | - |
| 1777920620 | 22.78° C | 35% | 1012.8 hPa | 0 mm | - | - | - |
| 1777920315 | 22.22° C | 35% | 1012.7 hPa | 0 mm | - | - | - |
| 1777920011 | 22.78° C | 37% | 1012.9 hPa | 0 mm | - | - | - |
| 1777919709 | 22.78° C | 34% | 1012.8 hPa | 0 mm | - | - | - |
| 1777919407 | 22.78° C | 36% | 1013 hPa | 0 mm | - | - | - |
| 1777919103 | 22.22° C | 35% | 1013.1 hPa | 0 mm | - | - | - |
| 1777918801 | 22.78° C | 36% | 1013.2 hPa | 0 mm | - | - | - |
| 1777918497 | 21.67° C | 35% | 1013.3 hPa | 0 mm | - | - | - |
| 1777918196 | 21.67° C | 35% | 1013.2 hPa | 0 mm | - | - | - |
| 1777917895 | 22.22° C | 36% | 1013.5 hPa | 0 mm | - | - | - |
| 1777917593 | 22.22° C | 36% | 1013.4 hPa | 0 mm | - | - | - |
| 1777917289 | 21.67° C | 38% | 1013.3 hPa | 0 mm | - | - | - |
| 1777916987 | 21.67° C | 34% | 1013.3 hPa | 0 mm | - | - | - |
| 1777916684 | 21.67° C | 35% | 1013.4 hPa | 0 mm | - | - | - |
| 1777916382 | 21.67° C | 34% | 1013.6 hPa | 0 mm | - | - | - |
| 1777916077 | 21.67° C | 34% | 1013.6 hPa | 0 mm | - | - | - |
| 1777915776 | 21.67° C | 35% | 1013.6 hPa | 0 mm | - | - | - |
| 1777915471 | 21.67° C | 35% | 1013.7 hPa | 0 mm | - | - | - |
| 1777915168 | 21.11° C | 34% | 1013.9 hPa | 0 mm | - | - | - |
| 1777914865 | 21.11° C | 33% | 1014 hPa | 0 mm | - | - | - |
| 1777914562 | 21.67° C | 33% | 1014 hPa | 0 mm | - | - | - |
| 1777914258 | 21.67° C | 34% | 1014.1 hPa | 0 mm | - | - | - |
| 1777913955 | 21.67° C | 37% | 1014.3 hPa | 0 mm | - | - | - |
* Rain latest hour (hover to see other rain measurements)
** Current wind speed in m/s (hover to see current wind gust speed)